GFSSGP_700_spd_177.txt.gz
Wind_Speed
13 12 11 8 5 9 18 19 15 9 7 15 20 11 10 14 6 7 7 7 7 3 3 3 8 9 8 7 8 6 5 4 4 4 3 3 3 3 3 2 2 2 2 1 1 1 2 2 3
15 13 10 7 9 16 15 13 11 8 19 17 13 18 14 9 22 20 14 7 10 7 8 4 7 11 10 9 9 8 6 6 6 6 4 4 4 4 3 3 3 2 2 2 2 3 4 4 4
15 13 9 5 11 19 14 8 8 18 18 18 13 19 20 12 25 21 19 18 17 15 12 10 8 12 13 11 11 10 8 7 6 6 5 5 5 5 4 4 4 3 3 3 4 4 6 5 6
13 12 10 12 15 11 14 7 10 12 11 18 21 15 19 24 23 21 21 21 16 17 16 13 13 13 14 14 14 12 10 8 8 7 7 7 6 6 6 6 5 5 5 5 5 6 6 6 6
12 11 8 12 14 15 13 17 20 21 17 15 16 20 13 28 28 26 19 19 19 21 21 17 17 16 17 17 17 16 13 10 10 9 8 8 8 8 8 7 7 7 6 6 5 5 5 5 4
9 8 9 14 13 12 14 14 22 23 16 15 20 21 21 36 33 30 24 24 23 22 23 23 22 20 20 20 20 20 15 13 12 11 10 9 9 10 9 8 8 7 7 6 6 5 4 3 2
8 8 11 14 15 16 16 17 19 21 22 17 21 23 15 28 36 36 33 28 21 23 26 27 26 24 21 22 22 21 19 16 15 14 12 11 11 11 10 9 8 8 7 6 5 3 3 1 1
8 9 8 8 10 14 14 21 21 22 24 23 29 22 16 27 36 33 37 33 31 25 27 30 28 28 27 25 25 24 22 19 17 16 15 13 12 12 11 10 10 9 7 6 5 4 3 2 2
9 4 8 12 10 10 15 19 14 18 22 23 27 32 31 34 37 32 32 36 33 29 26 32 31 30 31 29 27 25 25 22 20 18 16 15 14 13 11 11 10 9 8 7 6 5 4 4 3
13 10 10 17 20 23 24 24 23 23 23 21 22 24 30 33 35 34 33 33 35 34 32 32 35 35 33 28 25 29 27 25 22 20 18 17 15 13 12 11 10 9 9 8 7 6 6 5 4
17 16 19 18 21 23 24 24 25 27 25 25 25 26 26 32 35 34 34 37 35 32 36 36 38 36 36 34 31 30 29 27 24 22 20 18 16 14 13 12 11 10 10 9 8 8 7 6 4
20 21 20 21 23 25 27 28 30 32 31 34 32 33 34 35 34 36 36 35 37 39 38 38 42 41 41 38 34 32 32 29 26 24 21 19 17 16 14 13 12 11 11 10 9 9 8 6 6
24 22 26 27 26 29 30 28 31 34 37 35 33 34 33 32 35 36 35 38 39 40 42 47 39 43 43 40 40 36 37 32 28 25 23 21 19 17 16 14 13 12 12 11 10 9 9 7 7
24 29 28 27 25 27 31 35 33 39 35 39 31 29 31 32 35 36 37 36 39 42 41 45 48 45 43 46 41 40 37 35 30 27 25 22 20 19 17 15 14 13 13 12 11 10 9 9 8
28 28 26 25 27 31 33 41 25 28 23 23 25 35 34 34 36 38 36 38 37 41 44 49 51 48 53 51 47 43 43 37 32 28 26 24 22 20 17 16 15 14 13 12 12 11 10 10 10
24 18 16 19 28 25 27 45 25 30 28 29 32 34 37 38 36 37 38 38 39 40 46 51 52 49 51 56 46 43 41 37 34 30 27 25 23 21 18 16 15 14 13 12 12 11 11 11 11
13 17 27 25 21 22 20 42 34 35 36 32 37 38 39 39 39 40 39 41 39 41 45 53 51 51 55 62 40 40 41 36 35 32 29 26 24 22 19 17 15 14 13 12 12 12 11 11 10
22 29 29 29 17 31 33 40 44 35 33 36 36 33 32 35 35 36 40 39 41 42 43 54 55 51 48 51 57 35 42 37 37 33 30 27 25 22 20 18 16 14 13 13 12 11 11 10 10
27 25 31 31 28 24 27 39 46 40 29 27 25 24 26 30 34 35 37 38 40 43 44 54 56 51 52 54 52 42 41 36 37 33 30 28 26 23 21 18 16 14 14 13 12 11 11 10 10
24 28 33 31 21 31 35 45 40 22 14 18 19 20 22 27 32 33 35 37 39 43 42 51 56 50 52 44 45 39 39 44 37 34 31 29 26 24 21 19 16 14 14 12 11 10 10 10 10
25 25 27 31 32 30 26 38 23 19 21 16 17 21 21 28 33 33 33 36 38 39 43 46 53 48 45 38 51 53 46 40 38 35 31 28 26 24 22 19 17 15 14 12 11 11 10 10 11
29 18 26 32 30 20 22 22 30 18 20 21 17 19 25 29 26 28 32 33 37 37 40 43 44 43 41 43 55 49 46 42 35 33 32 29 27 24 21 19 17 15 13 12 11 10 10 11 10
29 25 29 34 36 32 23 14 17 27 23 12 20 23 23 29 36 32 30 32 35 36 37 36 37 40 42 47 47 54 35 35 31 34 31 28 26 24 21 19 17 15 13 12 11 10 9 12 10
25 25 34 21 12 6 12 13 30 28 23 29 26 30 37 48 47 34 29 31 33 37 34 30 32 37 39 40 46 47 45 35 28 30 30 28 26 23 21 18 16 14 12 11 10 10 9 12 11
16 26 12 4 7 11 16 33 35 30 24 28 29 34 49 62 57 27 28 30 31 32 32 29 31 37 37 45 40 38 45 37 28 29 28 27 25 22 20 18 15 13 11 11 9 9 9 10 11
21 10 9 9 14 23 30 11 20 30 27 27 31 50 43 32 19 19 24 27 32 28 29 28 28 32 35 41 42 42 36 34 29 29 29 27 24 21 19 17 14 12 10 8 10 9 9 10 10
9 11 15 18 26 22 16 24 36 18 29 37 45 51 32 23 16 15 21 23 29 25 26 26 26 31 35 48 43 44 42 37 30 28 27 25 23 21 19 16 14 12 10 8 10 9 10 10 10
13 15 10 11 8 15 16 29 22 33 27 41 40 45 31 20 13 13 17 25 22 22 24 21 28 31 42 48 39 50 43 33 29 27 26 25 23 20 18 16 14 11 9 7 8 11 8 10 15
18 17 11 11 10 6 12 21 27 20 38 39 55 34 26 13 11 13 20 19 20 20 21 17 25 33 40 42 38 43 35 31 28 27 26 24 21 19 17 16 14 9 8 8 9 9 9 12 14
12 14 15 9 12 24 25 35 20 32 38 50 41 19 16 5 8 10 14 18 20 21 19 16 24 34 37 38 31 37 30 29 27 25 22 21 19 17 15 15 11 6 8 7 10 8 11 13 15

GFSSGP_700_spd_180.txt.gz
Wind_Speed
12 12 10 8 6 8 16 14 9 10 8 20 15 10 7 3 8 7 7 9 10 8 1 1 7 9 8 8 8 7 6 5 4 4 4 4 3 3 2 2 4 4 3 2 2 1 0 2 3
13 12 9 8 8 12 13 8 14 12 15 15 14 13 9 11 15 20 10 7 8 12 4 4 6 10 10 9 10 9 7 7 6 5 4 4 3 3 2 3 3 3 3 2 2 1 2 3 4
13 12 9 5 8 14 11 11 8 13 16 18 20 15 13 16 23 24 22 20 18 16 11 9 9 10 12 11 11 11 9 8 8 6 5 4 4 4 4 4 4 4 4 3 2 2 3 4 4
12 10 7 12 12 7 15 7 11 16 10 13 14 12 15 24 24 27 23 22 19 18 21 15 13 13 14 14 14 14 12 11 9 7 7 6 6 5 5 6 6 5 5 4 4 3 3 3 2
11 9 6 9 10 11 15 22 19 19 15 13 11 15 9 22 26 28 18 20 20 21 23 19 17 17 16 16 17 16 14 12 9 10 9 8 7 7 7 7 7 7 6 5 5 4 3 2 1
9 5 6 8 10 6 14 20 21 19 12 10 18 20 22 30 29 27 25 22 18 21 24 23 20 21 20 19 20 19 17 16 13 12 11 10 9 9 9 9 9 8 7 7 6 4 3 1 1
6 6 7 12 16 16 13 20 21 21 20 15 22 24 14 26 33 34 33 29 25 22 23 23 24 25 24 22 21 20 20 19 16 14 13 12 12 11 11 10 10 10 9 8 6 5 4 3 2
5 4 3 7 9 14 17 21 20 19 21 21 26 22 18 25 34 35 33 32 34 32 26 27 26 25 28 26 22 24 22 21 19 17 16 14 14 13 12 11 11 10 9 8 7 7 5 5 4
8 6 4 10 10 12 16 22 18 21 23 17 19 24 25 26 32 38 32 31 31 34 33 27 29 29 30 30 28 27 25 24 22 20 19 17 16 15 13 13 12 11 10 9 8 8 6 6 5
9 8 5 14 16 20 21 23 23 25 24 16 20 20 24 25 27 34 30 31 35 33 34 33 32 32 34 33 33 32 29 27 26 22 22 20 17 16 16 14 13 12 11 10 10 9 8 7 5
15 15 16 16 21 23 25 24 25 28 28 23 29 28 26 28 30 33 28 25 29 32 35 33 35 35 36 37 35 34 32 32 28 25 24 23 18 18 17 16 15 13 12 12 11 11 10 8 7
20 18 19 23 24 25 28 29 28 29 32 28 33 35 34 34 36 34 34 30 26 31 34 35 38 36 37 40 37 35 33 33 31 27 27 23 21 19 18 17 16 15 13 13 13 12 11 10 9
19 24 25 23 23 25 28 30 28 33 29 32 34 36 37 33 33 34 33 31 30 30 34 37 37 43 34 45 38 38 37 35 31 31 29 26 22 21 20 18 17 16 15 15 14 13 12 11 10
25 24 24 22 21 28 34 33 30 30 27 27 27 28 28 27 28 33 34 34 33 31 33 38 38 39 48 42 45 44 43 38 38 32 30 28 24 23 21 20 18 17 16 15 14 13 12 12 11
24 25 18 18 32 36 37 39 33 25 20 33 31 26 27 32 34 33 31 32 31 31 33 36 41 41 49 49 54 48 47 42 40 33 33 29 26 25 23 20 19 18 17 15 14 14 13 13 12
22 13 22 31 22 27 34 47 37 35 36 38 34 31 33 32 34 33 31 34 35 32 33 37 41 44 45 53 53 55 62 53 45 41 35 31 28 26 24 22 20 19 17 16 15 14 14 13 13
16 22 31 33 32 22 21 50 42 41 37 36 35 36 35 34 34 33 30 33 36 37 35 34 43 40 44 49 50 47 43 43 38 41 35 34 30 27 25 23 21 19 18 16 15 15 14 14 13
25 32 33 32 33 32 34 46 51 44 45 38 31 26 24 26 26 26 28 31 33 33 33 35 43 46 43 46 48 48 43 39 50 40 42 36 30 28 26 25 21 20 18 17 16 15 14 14 13
26 27 32 35 29 26 35 45 49 40 17 17 17 19 19 20 25 22 28 31 31 34 36 35 41 45 46 45 49 55 46 48 38 38 41 33 31 28 28 25 22 20 18 17 16 16 15 15 14
24 27 35 35 28 31 42 51 40 22 15 15 21 22 18 20 24 23 32 30 32 31 34 37 40 42 44 44 43 43 42 46 48 39 32 28 30 29 28 26 23 21 19 18 18 17 16 15 14
23 30 27 30 36 34 30 46 30 17 14 15 21 25 20 21 31 31 29 30 31 30 31 35 39 39 40 41 39 40 41 44 48 42 28 23 28 29 28 26 23 21 19 19 18 16 16 15 14
26 22 28 33 33 21 31 21 34 10 23 24 12 16 27 37 39 42 40 36 36 33 31 35 38 34 37 37 39 42 44 46 46 45 36 30 29 30 28 25 23 21 20 19 18 16 15 14 13
31 27 30 37 37 32 31 12 16 24 26 25 22 27 27 36 45 54 56 53 45 36 34 35 33 33 36 36 36 42 44 42 42 44 41 32 32 31 27 25 23 21 19 18 17 16 13 13 11
23 26 38 15 13 3 23 12 32 34 27 24 22 28 37 46 51 61 57 43 35 31 35 33 29 30 35 33 36 40 38 49 47 44 37 29 28 28 27 24 22 21 19 18 16 14 11 11 10
11 25 9 3 1 6 20 29 25 20 23 27 28 32 38 45 56 42 38 20 20 30 34 26 28 30 31 32 33 38 37 45 40 40 36 28 27 26 25 23 22 20 19 17 15 13 10 10 9
25 9 6 6 5 21 27 10 16 27 26 31 35 41 54 51 55 34 24 16 21 26 26 24 27 28 31 31 31 33 36 38 32 42 31 27 26 26 25 23 22 20 18 16 15 13 11 10 9
7 9 13 15 26 16 8 20 40 10 37 38 39 50 58 54 32 18 13 14 19 20 20 19 24 27 31 29 26 33 42 38 45 43 30 27 27 26 25 24 21 19 18 16 14 12 11 8 10
11 12 8 7 5 7 7 33 23 35 38 43 48 62 52 25 18 12 7 13 14 17 16 19 24 22 26 24 26 38 37 35 48 41 34 30 28 27 24 22 21 19 16 14 12 11 8 8 8
14 19 11 12 9 3 8 19 25 34 35 50 61 65 38 20 13 7 10 9 13 14 19 20 22 22 23 27 29 40 42 39 37 33 31 29 27 25 24 22 19 17 14 12 11 10 7 6 7
16 16 13 14 10 21 25 39 29 27 49 54 64 33 11 15 10 8 5 10 12 18 20 19 16 21 25 33 27 43 40 42 31 32 30 28 27 25 22 19 17 15 13 11 11 6 5 7 8

GFSSGP_700_spd_183.txt.gz
Wind_Speed
11 10 8 8 5 6 5 6 8 11 10 14 12 8 8 9 14 8 5 9 11 8 5 3 8 11 10 9 9 9 8 6 6 5 5 5 5 4 3 4 6 6 4 3 3 3 1 0 2
11 10 9 8 6 7 2 5 8 11 11 9 15 13 14 11 15 13 7 8 10 13 9 5 6 10 11 11 11 11 10 8 7 7 7 6 5 4 3 4 5 5 4 4 3 2 1 1 3
11 9 8 5 7 6 0 8 7 7 9 13 13 16 17 15 19 20 13 12 14 12 12 10 9 10 12 13 12 13 12 11 10 9 9 7 6 5 5 5 5 5 4 4 4 3 2 1 2
8 7 7 9 6 4 7 12 19 16 16 15 17 13 21 21 24 21 18 18 21 20 18 14 15 15 15 15 15 15 14 13 12 11 9 8 7 7 6 6 6 6 5 5 4 3 3 3 2
8 6 7 5 3 1 11 15 20 21 23 19 19 16 18 21 25 28 24 18 19 22 21 20 21 19 19 18 17 17 17 14 14 12 11 9 9 8 7 7 7 7 7 6 5 4 4 3 4
7 5 2 3 5 6 10 15 21 24 23 21 22 25 26 25 24 27 26 24 21 20 23 20 22 22 22 22 21 19 18 17 16 14 12 11 11 10 9 9 9 8 8 7 6 6 5 5 6
5 4 0 4 8 13 16 20 23 24 21 19 23 26 27 25 28 30 31 27 27 24 22 20 21 24 25 24 23 22 21 21 21 17 14 14 13 12 11 10 10 10 9 9 8 8 8 7 7
8 7 5 4 8 11 13 17 20 21 18 15 16 16 16 20 29 30 28 26 29 32 30 27 24 26 25 25 23 22 25 22 23 21 18 16 15 13 12 12 12 11 11 10 10 9 9 8 8
8 7 3 4 9 12 16 19 18 22 20 18 21 20 17 18 27 27 30 22 25 27 30 33 31 30 30 28 29 27 26 25 25 24 22 19 18 15 14 15 14 13 13 12 11 11 10 10 8
10 10 10 11 13 18 20 19 22 23 18 14 20 20 24 24 25 29 31 23 20 26 31 32 33 32 33 32 33 33 30 28 27 26 25 22 18 18 17 16 16 15 14 13 13 12 11 11 9
14 14 13 10 17 21 22 19 20 23 20 18 22 22 27 32 30 31 34 27 23 21 28 32 33 36 35 38 36 36 35 34 30 29 29 24 20 20 19 17 17 16 15 15 14 14 13 12 10
15 15 18 19 19 20 21 22 26 23 23 24 27 31 31 33 36 36 36 31 32 29 26 30 34 34 38 39 36 38 37 37 34 33 32 26 21 22 21 19 18 17 16 16 15 15 14 13 11
18 20 20 19 18 18 25 25 27 23 24 26 28 27 29 31 30 32 36 34 32 33 28 28 33 36 39 44 38 38 37 38 36 31 32 30 25 23 22 21 20 18 18 17 16 15 14 14 13
19 20 19 19 21 29 32 33 30 25 29 34 34 33 28 28 26 26 27 31 34 35 31 30 32 34 38 40 39 41 40 42 38 36 34 32 28 26 23 22 21 20 18 18 16 16 15 15 14
19 22 19 23 28 30 34 36 33 31 33 37 32 28 29 31 29 28 28 31 27 29 31 30 33 33 37 41 48 48 42 47 46 42 33 30 31 27 25 24 22 22 20 19 17 17 17 16 16
25 18 33 29 27 31 31 42 37 32 38 37 33 29 30 28 27 29 29 29 25 27 28 27 31 34 37 41 45 48 52 40 38 40 36 30 32 30 27 25 24 23 21 20 19 18 18 16 16
23 29 34 30 30 34 30 45 39 40 41 37 30 26 27 27 24 22 21 22 20 24 28 31 33 35 38 40 44 48 48 46 42 39 32 40 35 30 28 26 26 24 22 21 20 18 18 17 17
25 31 32 34 36 31 40 47 45 39 33 27 20 13 13 15 15 14 17 16 18 22 25 27 31 37 40 42 41 46 49 45 43 50 46 40 39 34 28 28 28 25 23 22 20 19 18 18 18
23 27 31 33 28 39 43 47 42 25 17 13 17 17 21 18 16 16 19 18 21 22 26 28 27 32 40 43 43 42 41 40 43 41 41 42 40 33 28 27 28 26 25 23 21 20 20 19 18
24 27 31 32 37 36 43 37 32 15 14 12 19 20 20 21 26 26 30 27 27 28 25 25 30 29 35 38 40 39 37 38 36 41 46 49 53 29 29 27 27 27 24 23 21 21 20 19 18
22 22 29 32 40 37 32 28 37 8 16 14 15 19 19 24 29 33 38 38 38 39 37 31 29 33 33 35 37 38 37 35 35 33 33 45 37 47 31 27 27 27 25 24 22 21 19 19 18
25 25 27 32 34 21 33 11 35 15 35 24 20 21 17 27 34 37 40 42 43 50 50 44 39 35 35 34 36 36 32 35 36 34 32 39 52 41 30 27 26 26 26 24 23 21 19 18 17
24 24 28 35 29 25 15 8 13 38 25 20 21 20 25 31 35 37 42 47 50 60 52 48 52 40 37 34 34 31 32 33 30 31 39 35 28 33 29 25 25 26 25 24 22 21 19 18 17
18 28 26 13 8 2 8 8 38 18 24 23 27 32 33 37 42 49 56 61 64 49 44 41 44 40 34 33 32 33 32 34 37 33 36 33 36 43 32 30 27 26 26 24 22 20 19 17 16
15 20 8 6 3 5 11 25 17 21 23 24 34 37 37 43 54 56 64 46 37 36 34 32 31 32 31 33 30 33 30 34 31 30 37 40 34 40 27 25 26 27 26 24 21 20 18 16 16
17 8 0 4 3 13 28 9 13 28 23 36 42 46 51 66 64 48 39 30 24 25 22 25 23 27 28 30 28 30 32 29 30 31 37 34 38 36 29 27 29 27 25 23 21 18 17 16 15
8 11 10 9 16 9 8 19 36 16 28 37 39 54 58 67 32 27 25 19 14 11 13 12 19 23 25 27 29 32 32 30 30 29 38 30 46 40 32 30 28 26 24 22 19 17 16 15 13
12 12 7 5 4 6 10 25 21 34 38 43 55 60 62 36 20 17 18 9 7 6 8 15 19 21 22 26 30 26 27 32 30 39 44 39 41 32 29 29 27 25 23 21 18 17 15 13 12
12 13 10 8 8 4 5 16 27 37 30 53 57 63 48 21 16 16 17 12 10 10 13 17 20 22 25 24 26 27 30 31 36 40 46 45 39 34 30 27 26 24 21 20 18 17 15 13 11
18 19 20 11 5 17 23 47 32 25 37 46 55 61 18 19 15 15 15 4 9 9 16 18 20 23 21 22 28 28 26 39 43 47 46 40 35 35 31 28 24 22 21 19 18 15 14 12 8

GFSSGP_700_spd_189.txt.gz
Wind_Speed
9 9 8 8 6 6 6 5 7 8 6 6 7 5 8 12 10 8 4 8 11 11 12 12 14 15 14 12 11 11 11 10 10 10 10 9 9 9 8 7 6 5 9 8 6 4 3 3 5
9 9 9 9 8 8 6 8 5 6 8 7 9 10 8 9 10 10 9 6 9 10 12 12 13 16 16 14 13 12 12 12 11 11 11 10 10 10 9 8 9 10 7 7 7 6 4 5 6
9 9 9 6 9 5 5 7 5 5 3 6 9 11 12 11 12 13 14 12 11 9 10 12 13 16 16 16 15 14 14 14 13 12 12 13 11 9 8 8 9 9 8 7 7 7 6 6 7
8 8 8 10 6 7 8 9 8 7 8 8 9 10 11 16 17 17 18 18 17 15 13 12 13 16 18 18 17 17 16 16 15 13 12 14 14 11 9 8 9 10 9 9 8 8 7 7 8
5 7 10 8 10 9 9 12 13 12 12 13 16 16 18 19 21 22 21 23 23 23 21 19 15 16 19 19 19 19 19 18 17 15 14 13 12 11 10 9 10 11 10 10 10 10 9 9 8
1 4 6 10 10 10 11 13 13 14 15 17 20 20 20 22 24 26 26 24 25 27 27 25 20 18 21 22 22 22 22 21 18 16 16 13 13 12 12 11 10 12 12 11 11 11 11 10 9
5 1 4 7 11 12 12 14 15 17 19 19 18 18 17 19 21 25 28 26 27 28 28 30 28 22 22 22 25 25 24 24 21 19 18 18 15 14 12 12 12 12 13 13 12 13 13 12 9
5 2 1 1 5 7 8 10 12 15 14 14 14 14 15 20 20 20 22 24 27 28 30 31 28 28 25 26 22 25 28 27 25 23 22 23 18 14 14 13 13 13 13 14 14 14 14 13 9
5 3 3 3 5 6 8 12 14 16 17 16 14 19 23 25 25 23 21 21 22 23 28 31 30 32 31 28 26 24 27 27 28 28 26 26 23 17 16 16 14 14 15 15 15 15 15 12 11
6 5 5 7 9 10 11 13 13 14 16 16 20 21 23 24 26 26 25 24 26 26 24 26 30 32 36 34 32 28 28 29 28 29 29 29 27 22 19 18 16 16 16 16 16 16 15 13 12
7 7 8 9 11 12 13 12 17 19 17 22 22 21 23 25 27 29 30 29 28 31 31 27 28 31 35 39 39 36 36 29 32 31 30 29 28 26 23 20 18 18 17 17 16 17 16 14 13
9 9 9 9 11 13 16 18 18 20 19 22 23 24 23 25 28 30 32 33 32 33 34 35 32 33 33 38 40 42 39 40 36 35 35 32 30 26 25 23 21 19 18 18 17 18 17 14 14
13 9 13 11 14 13 17 17 21 13 20 22 26 27 29 31 33 33 33 33 34 33 33 36 39 37 36 36 39 44 45 40 39 35 36 37 34 29 27 27 24 22 20 19 19 17 18 16 15
13 9 16 17 14 21 23 24 19 20 26 27 29 32 34 36 37 38 36 33 32 29 29 33 39 42 40 40 39 40 43 47 41 43 35 40 38 36 30 29 27 24 21 20 21 19 18 18 17
14 10 15 20 21 24 28 24 23 25 30 35 36 35 33 31 29 30 28 28 28 26 27 30 34 37 41 38 40 41 41 44 49 40 49 38 44 35 33 33 33 28 23 22 21 21 20 20 19
15 13 18 22 23 22 30 31 24 24 32 33 30 22 20 16 17 19 20 22 23 23 24 28 32 33 33 36 37 39 40 42 45 49 49 42 46 41 48 36 33 31 26 23 22 22 22 21 21
13 18 20 21 22 26 30 37 25 22 26 22 16 15 16 14 12 14 10 9 11 12 15 20 26 29 29 31 34 36 38 40 43 45 49 48 41 40 50 42 33 31 27 25 23 22 23 23 22
16 20 23 24 25 30 35 32 24 19 20 12 15 18 19 17 14 13 8 9 8 8 8 9 12 16 21 27 31 34 36 38 42 42 44 51 42 39 38 42 39 34 27 26 24 23 24 24 24
15 19 23 25 19 35 33 31 24 25 9 13 18 23 22 19 17 15 13 12 12 15 18 18 17 19 19 20 26 29 34 36 38 40 42 45 40 48 38 41 31 52 28 28 27 25 24 25 24
15 20 21 19 30 32 30 31 20 13 9 18 19 16 15 14 16 18 20 22 23 25 28 30 30 28 26 25 22 24 27 33 38 39 40 41 39 39 36 45 47 33 35 31 31 26 25 24 24
15 17 21 26 33 31 27 26 34 9 12 13 14 16 17 21 21 22 24 28 31 34 36 38 37 36 35 30 29 28 26 27 34 38 40 39 38 36 39 36 37 42 35 32 27 26 24 24 23
19 17 24 27 29 13 24 10 28 21 14 15 20 17 24 22 24 27 32 37 41 45 47 48 46 44 43 40 38 36 31 29 30 33 34 34 35 35 35 33 34 36 57 43 35 28 24 24 23
16 20 25 31 22 18 9 5 19 17 16 19 20 23 27 27 34 40 53 53 56 58 57 57 58 55 52 49 44 42 40 39 36 34 35 33 33 31 33 37 38 30 33 46 36 30 25 23 23
18 22 26 13 12 3 3 3 26 10 21 21 21 26 26 34 38 50 54 61 46 40 41 43 43 58 63 59 55 52 51 49 45 38 37 35 35 30 30 26 22 23 29 20 39 31 27 25 23
9 18 8 5 2 5 4 12 21 20 22 22 23 31 38 44 49 60 60 46 43 33 33 35 36 32 37 60 65 62 59 56 48 35 35 36 35 32 28 28 26 27 27 29 40 31 27 26 24
15 8 3 5 3 8 24 12 11 22 16 22 27 37 41 48 48 55 49 39 39 35 29 28 29 28 28 31 35 40 41 43 38 33 34 34 33 30 31 26 29 30 36 30 34 32 27 25 24
6 6 6 7 9 6 9 16 43 19 28 27 30 40 49 46 53 56 40 32 30 29 22 17 18 20 24 25 27 32 37 36 32 34 35 37 33 28 36 31 34 30 30 32 31 35 28 25 23
14 11 5 5 3 5 11 16 23 34 30 31 42 49 45 50 57 35 31 31 29 27 17 12 9 7 9 15 21 30 34 30 31 32 33 33 33 31 32 33 39 38 32 37 38 34 30 25 23
15 15 10 6 7 4 5 19 25 38 28 41 48 46 43 47 45 34 31 34 19 9 12 5 4 6 9 17 23 27 27 25 27 30 25 26 33 29 27 29 38 34 32 34 34 31 25 23 22
14 18 16 9 4 11 10 43 38 29 48 51 44 43 43 42 42 31 27 16 11 12 4 5 4 7 9 12 14 17 20 21 25 27 30 29 29 31 34 35 33 30 32 32 30 25 23 18 18

GFSSGP_700_spd_192.txt.gz
Wind_Speed
10 9 9 8 6 6 5 5 7 7 5 4 4 6 5 8 9 6 4 7 10 10 10 11 11 12 13 12 10 9 8 8 7 7 8 8 9 8 6 6 6 5 9 10 5 3 3 2 3
9 10 9 8 8 7 5 7 7 5 6 6 7 7 7 9 8 5 6 5 8 10 11 12 12 13 14 14 12 11 10 10 9 8 8 9 10 10 9 7 5 5 5 4 4 4 5 4 3
9 9 9 5 9 6 5 10 8 7 5 5 7 9 9 11 12 12 11 10 9 9 10 13 13 13 15 15 14 13 12 11 11 10 8 9 11 12 10 8 9 10 9 7 6 6 7 6 3
7 8 8 10 7 5 8 11 10 10 8 7 7 6 11 13 14 15 16 15 14 14 12 12 13 13 15 17 17 15 14 13 13 12 10 10 12 12 8 7 9 11 10 9 9 9 9 8 4
5 7 10 7 8 8 10 10 10 9 10 12 12 14 16 18 20 21 20 19 19 20 20 17 14 15 16 18 19 19 17 16 15 14 13 12 11 11 11 9 10 10 10 10 11 10 10 9 6
0 3 5 9 9 9 10 10 10 12 14 16 18 18 19 23 25 26 26 25 25 24 24 25 20 16 16 19 21 22 21 19 18 17 16 15 13 13 13 11 11 11 11 11 12 12 11 10 7
3 1 2 4 6 8 9 10 13 14 15 16 19 19 18 20 22 24 25 27 27 28 25 26 28 25 22 21 22 24 25 23 21 20 18 18 17 14 14 13 12 12 13 12 13 13 12 10 9
2 2 1 1 2 4 5 8 10 12 12 14 15 13 15 16 19 21 21 21 22 27 28 27 28 28 30 26 25 23 25 27 25 23 22 21 20 17 15 14 14 13 13 14 14 13 12 11 10
3 2 2 2 3 4 6 9 13 15 15 13 15 19 22 22 23 22 22 22 20 21 23 27 29 30 32 31 29 29 25 25 27 27 25 25 23 21 18 16 15 15 14 14 15 14 12 11 10
5 4 5 5 6 7 9 11 14 14 16 15 19 21 24 25 25 25 25 24 25 24 24 25 26 27 32 34 34 32 33 27 27 27 28 28 25 25 24 20 17 17 15 15 15 14 13 12 11
7 7 7 8 9 10 11 10 15 16 15 20 22 21 23 25 28 30 28 28 28 28 28 28 29 30 29 33 38 37 34 33 30 29 28 28 27 29 25 25 21 19 18 17 15 15 14 12 12
8 9 9 9 11 11 13 14 17 16 14 17 20 23 25 27 29 31 33 33 32 32 31 31 33 34 34 32 34 39 41 37 38 31 41 36 30 28 27 26 25 22 20 19 17 16 15 13 14
10 7 10 12 10 14 15 18 15 13 18 22 25 27 29 32 33 33 36 36 35 36 32 33 35 36 38 39 37 37 43 44 42 43 40 28 36 33 32 28 27 25 23 21 19 17 15 15 15
9 6 12 13 15 15 17 13 16 19 23 26 28 28 28 28 29 31 32 34 34 33 31 31 35 36 38 41 42 40 39 43 47 47 46 38 39 41 37 33 28 27 25 24 21 19 17 17 17
8 4 12 12 18 18 21 15 15 21 28 28 26 26 24 21 20 21 21 22 24 23 21 25 30 32 34 36 39 44 42 40 42 48 49 43 48 40 40 36 35 31 30 26 23 20 19 19 20
11 7 12 16 18 19 23 23 16 25 28 26 25 20 18 18 21 22 19 16 16 15 17 19 24 30 32 32 33 34 41 43 43 42 47 48 42 46 50 38 39 40 40 30 25 22 20 21 21
10 14 16 15 19 21 26 30 22 21 31 28 17 16 19 21 20 21 17 11 10 10 9 12 17 21 25 26 29 30 32 39 42 43 41 46 52 44 49 41 36 46 49 33 28 25 22 22 23
12 16 20 20 23 22 30 28 25 22 27 21 17 20 20 18 18 16 16 15 14 13 9 8 11 13 14 17 20 23 27 31 38 39 40 39 43 49 42 47 35 45 46 43 31 26 24 24 24
13 15 20 21 18 32 32 30 17 24 18 17 19 18 17 15 15 14 15 15 17 19 20 20 21 22 22 22 21 20 24 26 31 34 37 38 39 41 44 38 37 39 45 40 32 29 28 27 26
15 16 19 15 26 31 33 29 10 18 14 17 15 17 17 17 19 19 20 22 25 27 30 32 34 34 33 31 30 27 24 25 27 30 34 35 36 35 37 41 45 41 36 33 39 31 26 27 26
14 16 17 23 30 32 28 29 23 11 14 15 21 17 18 19 22 24 26 27 33 34 39 43 45 46 43 40 39 37 33 29 27 26 27 30 35 35 34 34 35 33 36 36 35 33 30 28 29
13 14 20 24 29 17 24 10 22 22 11 18 17 17 22 23 29 30 32 41 44 52 56 59 48 53 56 49 48 45 40 35 28 23 19 22 27 33 32 31 33 38 25 26 30 36 30 31 28
11 18 19 27 24 17 13 7 6 22 12 19 15 19 22 27 33 38 43 46 51 55 57 43 39 38 52 58 56 53 49 42 35 30 25 21 23 29 30 29 25 30 32 27 28 31 30 35 32
14 14 23 14 11 3 2 3 29 9 22 19 19 21 24 33 39 44 45 53 55 47 37 38 36 35 37 48 57 62 59 52 43 35 30 26 24 28 32 34 34 30 29 26 27 27 26 39 33
9 15 7 5 3 5 4 10 30 13 20 18 24 25 30 37 45 41 50 53 41 39 37 35 33 34 35 40 43 46 58 61 51 41 36 35 32 31 34 32 27 32 31 26 34 26 30 32 38
11 5 1 5 2 7 18 12 6 32 12 21 26 28 36 45 43 44 49 46 43 41 38 32 27 29 28 32 35 34 38 61 58 46 42 35 32 30 31 32 28 29 27 21 31 26 30 31 34
3 5 4 5 9 5 8 15 39 7 25 29 28 39 42 46 43 46 47 44 37 39 32 26 24 23 22 22 23 24 27 44 61 55 48 35 33 30 32 29 32 31 30 30 30 35 34 30 31
7 9 4 4 3 5 10 15 22 25 29 34 43 47 45 43 44 47 46 41 29 31 30 19 17 18 16 16 17 19 23 29 33 36 40 33 33 29 30 33 32 32 30 33 31 34 29 29 27
18 13 9 6 6 4 5 13 15 40 28 49 50 45 42 44 44 47 45 30 24 24 26 17 12 13 11 6 8 17 21 23 26 31 30 27 29 33 29 34 30 28 29 32 36 30 30 28 30
18 12 12 7 5 9 5 32 39 16 51 45 43 41 46 44 45 42 40 24 21 19 19 17 10 9 8 6 3 9 18 27 30 29 26 23 24 27 27 23 33 29 27 32 27 22 22 28 27

GFSSGP_700_spd_195.txt.gz
Wind_Speed
9 9 11 8 6 5 6 5 7 8 6 6 5 7 6 9 9 6 3 9 11 12 11 11 10 10 10 10 9 8 8 7 5 4 4 4 4 5 6 4 4 4 6 8 7 1 1 0 1
8 9 9 8 7 7 5 7 8 8 8 7 7 6 6 8 8 7 6 7 9 12 12 11 11 11 12 12 11 10 9 9 7 6 5 5 4 6 7 7 3 3 2 6 6 4 2 2 2
8 9 9 6 8 6 6 10 9 8 8 8 8 8 8 8 9 9 8 8 8 8 9 11 11 12 13 14 13 12 11 10 9 8 7 5 7 7 7 8 8 9 10 7 4 5 5 3 3
7 9 8 8 6 5 8 10 11 9 7 7 8 7 11 12 13 13 11 11 11 12 10 10 12 13 13 15 16 15 14 12 11 10 9 8 8 6 7 7 8 13 13 13 9 8 6 5 4
5 7 8 5 7 7 7 8 9 9 9 10 10 11 13 15 16 17 16 16 16 16 16 14 13 15 15 16 18 19 18 16 14 12 12 11 8 9 10 11 9 11 13 13 11 10 8 5 5
1 3 3 5 7 6 6 7 8 9 11 13 14 15 17 20 22 22 23 23 23 23 21 21 20 19 18 18 19 21 21 20 17 15 14 13 13 13 12 12 12 11 12 12 12 11 9 7 7
1 1 1 2 2 3 5 7 9 10 11 13 14 14 16 17 20 21 22 22 24 25 25 24 24 24 23 21 20 21 24 23 21 19 17 17 17 17 16 14 13 13 13 12 13 12 10 9 8
1 2 3 2 1 1 3 6 7 9 11 13 13 10 11 13 15 17 18 19 19 20 22 26 26 27 28 27 26 23 23 25 25 23 22 21 20 19 19 15 15 14 13 13 13 12 11 10 10
2 3 3 3 2 1 5 7 11 11 11 11 15 16 18 18 20 21 21 20 20 21 21 20 22 28 30 31 31 30 28 25 26 27 26 25 24 21 21 19 16 15 14 14 14 12 12 12 11
5 5 4 3 2 3 5 6 8 10 12 14 16 18 20 21 22 23 25 25 24 23 23 24 23 23 26 31 33 33 33 33 28 27 28 29 27 25 24 24 21 18 16 15 15 13 13 12 13
7 7 6 6 5 5 4 6 9 11 10 13 14 16 19 21 24 25 26 27 28 27 26 28 28 27 28 28 30 35 36 36 34 31 31 31 32 30 27 27 25 23 20 17 16 16 14 14 13
6 8 7 8 6 8 8 10 8 9 12 15 18 21 22 24 25 29 30 31 32 34 30 30 32 32 31 32 32 32 37 39 36 34 36 33 31 32 32 30 29 28 25 20 18 18 16 15 15
7 5 7 7 9 10 9 11 9 10 15 18 20 22 24 25 25 24 26 27 30 34 35 34 36 36 36 36 36 36 36 38 41 41 40 37 36 37 37 34 32 30 28 24 20 19 17 16 16
6 4 8 5 10 12 12 7 12 15 19 19 21 22 21 21 20 18 19 19 21 24 27 31 35 37 38 37 38 38 40 40 39 44 45 45 48 32 40 36 36 33 32 28 24 21 20 18 17
4 3 8 6 12 14 14 7 13 18 23 21 23 23 17 17 19 20 19 20 20 19 19 22 26 30 33 34 33 35 36 41 42 41 45 49 46 49 32 43 53 34 33 32 28 23 21 19 19
4 1 8 12 12 15 15 14 11 19 22 21 23 15 14 17 20 21 20 18 19 18 16 17 20 23 24 26 28 29 32 33 38 43 43 43 47 49 42 45 42 39 51 30 29 25 23 22 21
7 9 11 10 16 19 18 19 14 23 20 21 18 14 17 15 17 17 16 15 17 18 17 16 17 19 21 23 25 26 28 29 31 36 42 44 42 42 44 40 34 39 51 35 29 25 23 24 23
8 11 13 15 18 17 22 21 19 17 20 16 16 14 16 16 13 13 14 14 15 16 16 17 18 19 20 21 22 23 25 26 28 30 33 39 41 41 40 44 46 38 40 39 38 38 36 29 27
10 12 14 17 17 22 26 23 22 14 17 15 12 15 15 14 14 15 16 17 18 20 22 24 25 25 27 30 30 29 27 26 29 31 32 33 36 39 39 37 38 43 34 30 32 36 40 34 33
11 13 15 13 18 25 26 25 15 14 16 12 12 16 13 15 17 18 20 23 28 28 32 37 37 37 37 37 40 40 37 33 30 29 32 33 33 36 37 35 33 32 40 39 36 39 39 35 35
12 13 13 18 23 25 26 24 11 13 16 8 16 14 14 20 22 22 24 28 31 36 37 41 44 47 51 50 51 51 48 42 36 30 28 29 31 33 34 33 31 32 33 36 27 39 29 35 31
12 10 15 20 21 14 21 8 19 7 12 12 14 13 18 23 24 29 35 38 39 37 46 50 47 46 40 39 42 54 55 50 41 32 28 27 27 29 30 29 30 28 23 26 25 27 25 29 36
8 11 17 22 23 16 13 5 3 18 4 14 11 16 21 23 27 34 39 41 38 44 50 41 39 36 36 37 36 42 57 57 48 41 34 30 23 22 25 29 29 34 25 25 23 25 26 26 30
8 11 19 14 12 2 1 3 14 12 11 13 13 17 23 26 36 38 44 40 39 43 47 39 40 39 34 33 36 37 45 60 53 47 41 35 29 20 16 21 27 29 32 35 25 22 21 20 20
4 11 5 4 2 3 3 9 26 11 14 11 20 25 30 37 41 46 46 41 42 45 45 37 38 33 31 29 32 35 38 48 58 53 48 42 33 26 19 15 21 26 24 26 32 26 27 20 25
8 3 2 5 2 6 15 11 2 19 8 14 20 34 43 40 40 42 44 41 43 43 38 34 36 27 22 26 28 31 35 39 46 56 58 49 39 29 24 22 18 32 32 23 33 31 33 21 27
3 2 2 4 6 4 7 10 20 6 14 23 33 42 38 39 40 44 41 42 42 41 30 29 27 26 23 22 23 25 28 32 38 46 49 55 45 34 28 26 22 27 29 30 30 28 23 27 27
7 6 4 4 1 5 8 11 20 14 22 36 47 39 38 42 45 50 46 35 29 28 27 26 25 24 23 21 21 22 20 23 30 34 32 52 47 38 31 28 26 28 38 36 28 28 31 32 36
11 15 9 5 5 4 5 7 3 29 24 48 45 37 40 44 45 46 36 27 19 19 23 22 22 21 20 18 18 17 18 15 19 24 30 44 45 39 33 30 30 31 34 31 30 28 27 31 32
19 17 13 8 5 8 7 19 22 8 47 44 37 37 40 42 42 42 35 29 19 17 19 21 16 20 19 19 16 13 12 13 18 24 21 36 41 36 34 31 32 32 32 32 30 29 33 25 26

GFSSGP_700_spd_201.txt.gz
Wind_Speed
11 9 8 7 3 6 10 5 7 3 2 8 8 10 4 13 12 7 6 9 12 9 10 11 9 8 8 8 7 7 7 6 5 4 3 3 2 3 2 2 3 4 5 5 5 3 2 1 1
10 8 7 7 6 11 8 6 6 7 11 7 6 5 1 12 10 7 4 1 8 10 8 9 10 10 10 10 9 9 8 8 8 6 5 4 4 3 3 4 5 5 3 4 4 2 3 2 3
9 7 7 4 8 11 1 7 6 7 11 10 4 7 7 6 6 6 4 3 4 7 7 9 10 11 11 11 12 12 12 11 10 9 7 5 5 5 5 6 6 6 5 7 9 6 4 5 4
6 7 6 6 7 6 2 7 9 6 7 8 7 3 9 8 7 7 6 6 6 6 8 10 9 10 12 12 13 15 15 14 12 11 9 8 8 7 6 7 8 9 9 10 11 13 10 8 6
5 6 6 6 7 5 11 9 11 8 8 8 7 7 11 9 9 10 10 11 12 12 12 13 13 12 13 14 15 16 17 16 15 13 12 11 11 9 8 9 8 10 13 13 14 16 13 10 8
4 6 5 8 7 7 10 9 9 9 8 9 9 11 16 14 16 15 16 16 17 17 17 17 18 17 16 17 16 16 18 19 18 17 15 14 12 12 11 11 12 11 12 14 15 14 12 11 10
4 3 6 4 7 5 7 8 10 9 7 10 10 9 16 14 14 15 16 18 19 20 21 22 23 23 23 23 21 20 19 21 21 20 19 18 16 16 15 14 16 15 14 14 13 13 12 11 10
4 5 5 4 5 5 6 6 5 6 8 8 8 2 4 8 9 11 12 13 15 16 17 18 20 24 27 27 26 24 23 21 23 24 23 22 21 20 17 17 18 19 17 16 14 13 14 13 12
4 3 5 4 4 6 4 3 4 5 7 7 7 9 13 11 11 12 13 14 16 17 18 18 19 21 23 25 29 28 28 26 24 24 27 26 25 24 23 22 20 22 21 18 16 15 15 15 14
6 4 6 7 5 4 3 3 3 4 5 6 6 6 8 9 11 12 13 14 15 17 18 20 21 22 22 23 25 30 31 32 29 28 26 29 29 28 27 26 25 24 24 21 18 16 16 17 16
6 6 6 5 5 3 1 1 3 4 3 4 6 9 11 12 13 14 15 16 16 18 20 22 23 23 24 25 26 26 29 33 34 33 31 27 30 31 31 30 29 27 27 26 21 18 18 17 17
6 6 6 6 4 2 1 2 2 2 3 5 8 9 10 13 15 15 15 14 14 14 15 18 22 24 26 27 27 28 30 30 32 35 37 35 31 32 32 34 34 32 32 29 26 24 21 19 19
6 6 6 5 4 2 3 4 3 4 5 8 10 10 11 12 11 11 12 13 14 14 15 16 16 17 20 23 28 30 31 33 33 34 36 40 40 39 34 33 37 37 36 34 32 30 27 23 21
6 7 6 7 2 3 4 6 4 5 5 10 10 12 12 11 10 11 11 12 13 14 15 16 18 18 18 18 19 23 29 33 35 36 37 39 41 43 43 40 41 34 38 37 37 36 32 29 24
7 7 7 7 6 4 5 7 5 8 10 11 9 11 9 10 10 9 10 11 11 11 13 15 16 17 17 18 18 17 19 24 31 36 38 40 42 39 45 46 45 43 25 43 51 42 40 31 28
8 9 6 7 8 7 6 1 9 10 13 12 10 10 11 10 11 12 12 11 11 12 13 15 17 17 17 17 17 18 20 21 24 27 33 36 40 40 43 46 50 47 43 38 38 39 34 30 30
10 6 8 9 9 9 7 7 7 13 14 11 9 9 9 11 12 11 10 12 14 15 17 20 21 22 22 22 22 22 22 23 24 26 29 30 34 38 40 44 46 46 46 53 36 39 35 35 40
8 9 10 8 12 12 11 12 12 14 16 10 8 8 9 11 10 9 12 14 16 20 22 24 26 27 27 28 28 29 30 30 30 30 31 31 31 33 36 39 41 45 42 42 45 34 39 40 40
14 11 8 8 12 13 11 13 14 18 13 8 7 8 9 10 10 12 15 19 21 23 26 28 31 31 35 37 36 35 36 37 38 37 36 36 34 31 32 35 36 39 42 40 36 36 34 41 42
15 12 9 13 11 13 15 16 16 10 9 8 8 11 10 10 12 14 19 22 25 28 31 33 35 37 37 37 37 36 39 44 47 50 42 40 39 35 33 32 32 34 37 41 36 34 38 47 34
16 11 8 10 15 17 14 12 9 8 9 8 11 11 11 12 13 16 22 26 30 33 36 37 38 38 38 38 40 42 44 42 39 41 46 44 42 39 35 33 31 31 32 37 36 35 32 36 34
13 15 13 12 10 3 11 5 9 13 10 9 8 9 11 13 16 20 26 32 36 37 38 40 42 43 42 42 42 44 42 40 38 39 41 43 46 46 40 35 33 31 30 33 36 34 34 35 34
16 13 12 13 12 12 7 4 5 9 9 6 7 10 13 16 21 25 30 32 34 37 43 44 46 44 40 38 40 42 40 39 41 42 40 39 39 42 47 41 35 31 30 31 34 36 40 35 35
13 10 11 11 7 3 7 6 5 8 11 7 4 3 13 23 27 32 31 32 36 39 40 43 41 37 32 32 29 29 30 31 35 36 35 36 32 35 42 42 36 30 29 32 33 36 32 32 34
11 5 3 3 2 1 6 5 12 7 15 11 9 12 21 28 31 31 31 34 37 39 41 41 37 31 25 25 27 29 30 30 32 32 32 32 31 34 41 41 36 28 28 29 31 35 30 32 29
11 7 4 4 3 1 4 7 2 14 14 11 9 17 28 30 28 29 32 36 38 40 39 38 36 29 22 25 27 29 29 29 30 33 35 36 32 34 38 39 34 28 27 27 31 33 30 32 37
10 8 10 3 4 3 8 6 10 15 16 6 13 21 32 32 30 32 34 37 40 40 40 40 36 29 24 22 27 26 24 26 27 28 32 32 32 32 37 41 36 28 23 24 29 33 35 30 32
11 8 2 3 2 5 6 11 9 12 12 13 22 33 36 30 30 32 35 39 40 42 44 44 32 28 23 22 24 25 27 27 27 29 30 29 30 32 35 43 39 32 25 19 29 32 32 32 26
14 10 8 5 4 3 5 4 4 17 16 16 28 37 32 29 32 35 38 40 41 43 43 31 23 25 24 23 26 28 29 29 28 31 25 26 28 34 35 46 41 34 27 21 29 32 27 29 36
16 11 13 6 5 8 6 9 7 15 11 25 36 33 27 30 34 37 39 39 40 37 34 23 23 26 27 29 29 28 29 23 26 23 20 22 25 31 33 48 43 36 29 25 26 26 38 30 32

GFSSGP_700_spd_204.txt.gz
Wind_Speed
9 8 8 7 6 4 11 8 7 4 8 11 11 9 1 5 9 5 7 6 11 10 8 10 9 7 7 7 7 6 6 6 5 4 2 1 2 2 1 1 1 2 2 4 3 1 1 2 3
8 8 7 7 6 12 6 5 11 15 13 3 4 10 6 7 7 6 1 1 11 12 9 10 11 9 9 9 9 8 8 8 7 6 4 3 2 2 1 1 1 3 4 2 4 1 4 3 3
7 7 8 3 5 9 3 5 11 10 8 8 6 9 13 4 12 7 5 5 5 8 9 8 9 9 10 10 9 10 10 9 9 8 6 5 4 4 2 2 4 5 5 3 4 8 4 5 4
6 8 7 9 6 5 5 13 8 3 4 7 6 5 7 6 5 6 7 6 5 7 8 8 8 9 10 11 10 12 13 12 11 10 9 8 6 6 4 6 7 8 7 6 9 11 10 8 6
5 6 6 5 7 7 11 12 9 7 8 7 7 6 9 6 7 7 9 9 9 9 9 10 10 10 11 12 12 12 14 14 14 13 11 11 9 9 7 7 8 10 10 10 12 13 14 12 8
4 4 4 11 11 13 12 10 8 8 6 7 9 6 11 9 11 11 12 13 13 13 14 15 15 14 14 15 15 14 13 15 16 16 15 13 13 12 11 9 11 10 12 14 16 17 15 12 10
4 4 5 4 5 8 8 8 10 10 6 9 7 7 13 11 11 12 14 15 15 16 17 19 19 20 19 20 19 18 17 16 18 19 18 17 16 16 14 13 13 15 14 13 13 14 14 12 11
5 6 5 5 8 9 6 6 7 8 10 4 4 6 12 2 4 7 9 10 11 11 13 14 15 19 22 24 24 23 22 21 20 21 22 22 21 19 18 17 16 16 17 16 14 14 14 13 12
5 4 5 8 8 13 6 7 7 6 7 5 5 7 9 9 8 9 10 11 12 14 15 14 16 17 17 20 22 24 26 26 24 22 22 24 24 23 22 21 20 19 19 21 17 15 15 14 13
6 4 10 12 12 9 6 5 3 4 4 3 2 3 3 5 7 8 9 11 12 14 15 15 16 18 19 20 21 20 23 26 28 27 25 23 25 26 26 25 24 23 23 23 21 17 16 17 14
7 8 11 9 7 5 4 3 2 2 3 2 2 5 5 5 7 8 9 9 10 12 14 15 16 17 19 20 21 22 23 24 26 30 31 28 27 26 28 30 28 27 27 27 25 22 18 19 17
7 8 8 7 7 6 5 2 3 3 2 0 3 4 6 8 10 10 10 10 10 10 10 10 11 12 13 17 22 23 24 26 27 26 29 34 33 29 25 31 30 31 30 32 29 26 23 21 20
9 7 7 7 6 5 5 3 2 2 3 2 5 4 6 8 8 9 10 10 10 10 10 11 11 12 12 12 14 18 25 28 29 30 29 30 32 36 34 37 29 31 34 36 36 32 27 26 25
7 9 8 8 6 6 6 6 5 3 4 4 6 6 7 7 8 9 9 9 11 11 11 12 12 12 13 13 13 14 17 21 27 31 32 32 34 33 36 38 37 35 32 45 45 37 33 32 28
10 10 10 10 11 5 6 7 8 5 4 8 8 7 8 7 8 8 10 11 11 11 11 13 14 15 15 15 16 15 15 17 20 22 27 31 36 35 35 37 42 43 44 41 41 42 37 34 35
10 11 10 9 9 7 4 5 9 9 8 10 11 10 8 8 8 10 10 9 10 11 13 14 16 17 19 20 20 19 19 18 18 20 23 24 27 31 33 35 40 42 47 42 33 33 34 39 38
11 8 7 9 8 9 6 8 12 11 14 12 11 11 9 8 10 10 10 11 12 14 16 18 19 21 23 25 24 24 25 26 25 23 23 24 25 27 28 31 35 39 43 44 46 47 39 30 29
8 10 9 12 12 9 13 12 12 12 17 16 11 11 9 9 11 11 11 12 15 18 20 21 23 25 28 29 28 30 32 30 30 29 29 30 30 30 29 29 30 34 36 39 43 40 43 44 42
14 10 10 8 16 14 14 14 13 15 17 12 10 11 12 11 11 12 13 15 18 20 23 24 26 30 33 34 35 35 33 33 33 33 31 33 38 37 35 34 31 29 31 32 35 37 38 37 37
18 17 15 16 16 14 14 17 16 15 10 9 8 12 15 14 15 15 16 19 21 23 26 28 31 33 35 37 39 39 37 34 35 36 40 40 36 41 42 39 36 31 27 28 32 36 38 34 35
18 16 10 15 15 14 14 14 11 8 7 9 12 16 14 15 15 18 21 23 25 29 32 31 32 35 37 40 42 41 41 38 37 37 38 42 39 33 39 41 39 35 30 27 29 31 35 41 33
16 18 19 17 10 4 6 4 10 12 12 13 13 15 19 17 19 19 22 24 28 31 33 34 37 37 37 39 38 36 34 35 35 37 35 34 37 35 37 39 43 39 33 31 28 28 34 36 35
18 19 15 12 10 10 12 6 6 17 12 12 14 17 17 20 19 22 26 30 32 33 34 36 38 38 39 37 37 36 32 31 30 28 29 31 35 38 37 37 40 45 37 33 29 28 35 39 39
19 13 10 9 7 2 13 10 9 14 14 14 14 12 20 19 18 21 27 29 29 31 34 36 37 38 37 35 35 34 30 27 28 29 30 30 31 31 31 30 33 38 41 35 31 28 33 35 32
17 9 3 1 0 3 10 9 6 9 16 16 18 21 21 18 23 32 35 30 30 33 35 38 38 39 38 38 35 32 29 29 30 29 30 29 28 28 27 28 32 36 38 35 30 30 32 34 32
19 14 5 6 4 4 8 7 6 13 17 23 20 16 16 18 24 33 30 30 31 34 37 38 40 40 41 37 33 29 28 29 29 28 29 28 28 29 32 27 32 35 36 33 31 31 31 32 33
12 15 14 3 3 1 6 6 7 13 20 24 16 18 19 25 35 33 30 30 32 36 38 39 40 41 37 29 29 27 26 26 26 26 29 30 29 30 32 28 32 35 37 33 31 30 31 30 30
11 13 6 6 3 4 8 15 10 16 20 18 16 24 26 32 36 28 30 32 35 38 39 39 39 38 29 26 25 24 24 28 30 30 33 33 31 29 31 26 30 36 37 31 28 26 29 27 29
18 13 8 7 4 4 1 1 5 12 21 8 16 26 27 38 30 28 31 34 37 39 39 38 36 32 27 25 25 26 28 29 33 35 32 29 30 30 30 26 29 39 37 30 23 21 26 25 26
11 11 12 5 4 5 2 8 11 11 13 12 23 32 35 34 25 28 32 37 40 40 39 36 28 25 26 26 25 26 27 33 34 29 27 27 22 20 22 25 26 41 38 29 23 22 28 30 31

GFSSGP_700_spd_210.txt.gz
Wind_Speed
8 9 8 8 7 6 4 6 9 14 12 10 11 10 15 13 13 8 13 12 13 12 14 15 14 13 12 11 10 9 9 8 7 7 7 6 7 7 7 6 7 6 6 4 6 3 2 0 2
7 7 10 9 7 7 6 12 15 13 11 12 14 16 18 16 10 12 9 9 11 11 14 16 15 14 13 12 11 10 10 9 9 8 7 6 6 6 7 7 8 8 6 4 3 3 1 1 2
5 7 9 6 9 7 10 11 10 10 10 10 12 12 12 11 14 11 8 6 6 12 14 15 15 15 13 12 11 11 10 10 9 9 9 8 7 8 8 8 9 8 8 6 5 3 4 4 6
5 8 9 8 8 6 11 11 11 10 10 12 13 9 10 9 9 9 8 8 7 9 9 14 15 15 14 12 13 12 11 11 11 11 10 10 9 9 10 9 9 9 7 7 8 6 7 8 10
5 9 12 9 10 6 9 11 10 9 10 12 13 12 7 9 7 8 9 8 9 10 10 12 13 13 14 14 13 13 13 13 13 13 13 12 11 11 12 10 10 10 10 8 8 10 9 10 13
7 10 8 11 11 11 12 11 12 12 13 12 12 12 9 9 9 9 10 9 9 10 10 11 13 13 13 13 13 12 13 12 14 15 15 15 14 13 13 12 10 11 11 12 13 12 12 13 13
8 10 9 8 9 14 13 13 16 13 11 12 12 11 9 11 11 11 11 12 13 14 15 16 16 16 16 16 16 16 15 14 14 15 16 17 16 15 15 14 13 10 12 13 16 16 14 12 12
9 9 9 8 9 10 12 10 13 12 11 12 11 8 9 8 9 10 11 14 15 16 18 20 20 21 20 20 20 20 20 19 18 17 17 18 18 19 18 17 16 14 14 16 16 15 13 12 11
10 10 8 10 11 12 10 10 12 12 10 11 12 9 7 8 6 8 10 11 11 12 13 14 16 17 18 18 18 20 22 23 24 24 22 20 20 21 21 20 19 18 18 17 17 17 17 14 12
10 11 10 12 12 10 11 9 10 12 11 12 11 10 8 7 8 8 7 8 9 11 11 12 14 15 16 17 17 18 19 19 20 23 25 25 24 22 23 24 23 22 22 21 20 20 19 18 16
9 12 10 10 11 10 11 10 11 11 11 11 9 6 7 7 6 4 6 7 7 8 9 9 11 13 15 16 17 18 19 20 19 20 21 22 25 26 25 23 24 25 25 25 24 23 22 21 20
11 9 10 10 11 9 8 8 10 10 10 12 10 8 8 7 6 5 4 4 4 4 4 4 5 6 7 8 10 13 17 19 20 20 21 21 23 25 29 29 26 24 25 27 30 27 25 26 25
10 9 8 8 9 8 9 8 9 9 11 10 9 6 6 5 5 4 4 4 3 3 3 4 4 4 5 5 6 8 10 12 14 16 20 22 24 24 26 27 31 32 29 25 25 26 28 28 28
9 7 8 8 9 8 8 9 8 10 10 9 6 5 7 6 6 6 5 5 5 5 5 4 3 3 3 4 6 7 8 10 12 14 17 18 20 23 26 28 30 32 35 36 31 30 29 31 33
11 12 10 11 10 9 7 10 9 10 10 9 7 5 8 8 7 6 5 5 5 4 4 4 4 5 7 9 9 9 10 12 14 15 17 19 21 20 20 25 31 33 34 34 38 38 34 33 28
9 10 13 12 13 13 11 6 6 11 10 10 7 6 8 8 8 7 6 6 6 6 6 6 8 9 10 12 12 13 14 15 17 18 19 22 24 24 24 23 24 29 33 35 36 38 40 42 41
13 10 10 12 12 11 12 7 10 12 11 12 10 9 8 9 10 9 8 8 8 8 9 9 11 12 14 16 17 19 19 20 20 21 24 26 29 30 28 27 26 26 27 29 31 35 39 39 36
17 15 14 13 9 11 10 10 9 11 14 13 14 12 9 11 12 11 11 11 12 12 12 13 15 17 19 21 22 22 22 23 24 26 28 30 33 33 33 31 32 31 28 27 28 29 32 36 34
14 11 11 11 13 12 13 11 11 16 18 16 15 16 13 13 14 13 14 14 14 15 16 17 20 22 23 26 27 27 27 25 26 29 31 32 35 37 37 35 34 33 32 32 31 30 30 31 29
19 18 16 12 13 14 16 16 15 15 19 20 20 19 16 16 16 17 15 14 16 17 18 21 24 26 29 30 30 32 31 30 28 29 31 33 32 34 39 38 37 36 34 34 34 34 33 31 29
16 20 18 17 15 16 17 20 16 17 17 17 17 15 17 17 17 15 15 16 17 18 21 24 27 30 32 34 34 34 35 34 32 31 31 32 33 31 35 39 39 38 38 36 34 35 36 33 28
16 17 18 16 14 8 11 5 7 10 12 12 14 17 17 17 17 17 17 16 16 18 23 28 32 35 35 36 36 37 38 38 37 36 33 33 33 34 32 36 38 38 38 36 33 33 33 34 29
16 16 14 16 16 17 19 7 9 17 18 19 19 19 20 20 19 19 18 19 21 23 27 31 34 35 35 36 37 38 39 40 41 39 38 34 34 34 34 36 36 37 36 36 34 33 36 34 34
15 14 12 12 11 5 21 15 9 19 22 25 25 24 24 25 23 21 20 21 23 26 31 37 39 36 35 35 37 39 40 40 41 42 41 37 35 33 33 32 33 33 34 37 34 35 35 37 36
15 12 2 2 1 6 7 13 18 12 17 21 23 25 25 22 21 21 21 24 27 32 36 41 41 37 35 36 38 39 40 42 44 44 41 35 32 31 30 33 33 32 33 34 37 36 37 36 41
17 17 7 8 4 3 6 8 9 17 21 20 24 23 22 21 22 24 26 30 32 36 41 45 39 36 36 36 38 39 41 42 40 36 34 32 28 28 29 30 30 31 32 31 34 35 35 35 36
8 19 18 5 1 1 6 6 5 13 19 25 25 24 23 24 26 27 30 32 35 40 45 38 35 35 36 38 38 37 35 33 32 28 27 28 27 25 27 28 29 31 32 32 32 35 36 36 37
17 8 9 11 2 4 5 7 8 24 26 30 28 26 25 26 28 27 30 33 37 44 37 35 34 35 37 37 35 32 32 32 30 28 27 28 27 27 29 31 34 33 34 35 34 36 38 36 36
20 21 12 8 6 5 1 6 14 18 26 29 27 26 24 23 26 27 33 37 42 37 34 34 34 34 36 35 32 32 32 32 31 28 28 29 31 34 35 35 35 36 37 37 36 36 39 37 36
13 21 23 9 5 6 2 2 5 7 21 23 21 20 19 23 28 31 35 41 37 32 32 32 33 34 35 34 32 32 32 29 28 27 28 31 33 33 27 27 27 28 28 30 33 34 37 35 35

GFSSGP_700_spd_213.txt.gz
Wind_Speed
11 11 11 9 7 7 8 9 11 12 13 14 10 13 14 13 14 9 12 10 12 12 15 16 15 13 12 11 10 10 10 9 9 8 7 7 7 7 7 6 6 7 6 4 7 5 3 2 4
9 10 11 10 8 10 10 15 15 15 13 10 11 11 12 14 16 15 11 8 11 13 16 17 16 15 14 13 11 10 10 10 9 8 8 7 7 8 8 7 8 8 7 5 3 3 1 3 5
8 9 11 7 13 14 10 15 12 10 11 11 13 13 14 12 12 13 11 12 11 11 11 16 16 15 14 13 12 11 11 10 10 9 9 8 8 8 9 9 9 9 10 6 6 2 3 3 5
7 9 10 12 11 13 12 12 12 12 13 13 13 10 13 11 7 10 11 12 11 12 13 14 17 16 14 13 13 12 12 11 11 10 10 10 9 9 10 10 10 11 10 8 8 7 5 7 7
7 9 14 12 14 11 11 12 12 12 12 13 14 13 11 11 8 10 13 13 12 11 10 14 15 16 16 16 15 14 14 13 13 12 12 12 11 11 11 11 11 11 11 9 8 11 7 8 10
8 10 10 16 15 13 13 13 12 12 12 14 16 14 12 10 10 11 12 12 11 12 12 11 11 12 13 14 14 14 13 14 14 14 15 14 14 13 13 13 12 11 13 13 11 10 11 10 14
9 11 12 10 13 14 14 14 13 13 14 14 14 14 12 12 12 12 13 13 12 12 12 12 13 14 14 15 15 14 13 13 15 15 16 16 16 15 15 14 14 13 11 12 14 12 12 13 14
10 11 12 11 11 13 16 16 15 14 13 13 13 9 12 11 12 13 13 14 14 14 15 15 16 16 17 17 18 19 19 19 18 16 16 18 19 18 18 17 16 16 15 13 14 15 15 14 13
10 12 12 13 12 13 12 15 15 15 15 15 15 11 10 12 9 10 11 11 13 12 15 15 17 19 18 19 20 22 23 23 23 22 22 20 19 19 21 20 20 19 18 17 17 17 18 18 16
10 13 11 11 13 11 10 12 13 16 15 15 14 14 11 11 10 10 10 11 11 12 13 13 15 16 16 16 17 17 18 19 20 21 24 25 26 24 21 21 22 22 22 21 20 19 19 19 18
12 12 12 10 12 11 11 12 12 14 15 14 12 10 10 10 9 8 8 8 9 9 10 11 13 14 15 15 16 16 17 18 18 19 21 21 21 24 27 25 23 23 24 24 24 23 23 21 22
12 11 10 11 12 13 11 10 13 12 12 13 12 12 11 9 7 5 5 5 6 5 5 6 7 8 8 9 11 13 16 17 19 19 20 20 21 22 23 27 29 27 24 23 26 27 27 26 25
10 10 9 9 10 11 10 9 10 11 12 13 12 10 8 7 6 4 6 6 6 5 6 6 6 6 6 7 8 9 11 12 14 16 18 20 22 23 24 26 28 30 32 30 26 24 26 30 32
10 9 9 8 8 9 10 10 10 11 12 12 11 8 7 7 6 7 7 6 6 5 6 5 5 6 7 7 8 10 10 12 13 15 15 16 17 19 23 26 29 30 32 33 36 34 29 28 32
13 12 11 10 9 10 11 12 10 11 12 13 10 7 6 7 7 8 7 6 7 7 7 7 8 8 9 10 11 12 13 14 15 17 18 19 19 19 19 21 24 29 33 33 33 35 38 38 33
10 11 12 11 11 12 13 8 9 13 12 14 11 8 7 8 10 9 9 8 9 9 9 9 10 11 11 12 13 14 16 17 18 19 21 23 23 23 23 24 25 27 28 30 34 36 36 37 40
14 12 12 10 11 12 13 8 10 10 15 16 12 8 7 9 11 10 10 10 10 9 10 10 11 12 12 14 16 17 19 20 21 22 24 26 27 28 28 29 29 31 32 30 30 31 34 38 38
14 16 15 13 9 11 13 11 8 12 13 14 14 11 9 9 11 11 11 11 11 11 11 12 13 14 16 18 20 20 22 24 26 27 28 29 30 31 32 33 33 34 35 34 33 32 32 32 33
16 13 12 9 11 12 12 11 11 14 16 17 16 15 11 11 13 14 14 14 13 12 13 15 16 18 20 22 23 24 25 26 28 30 32 32 32 33 34 35 36 37 36 36 36 36 35 33 30
19 15 13 10 10 12 14 14 14 17 18 15 16 18 16 16 15 17 16 14 14 15 16 17 18 21 24 28 30 31 31 29 29 30 30 33 34 34 34 35 35 36 37 38 37 37 37 35 33
17 20 19 16 14 15 17 23 21 20 20 20 20 20 20 18 17 17 15 14 15 16 16 17 20 23 27 30 33 34 35 34 33 32 31 31 33 34 34 35 37 37 38 39 39 38 38 37 35
16 17 15 15 12 8 9 6 10 15 16 15 14 17 21 20 18 17 14 15 17 17 18 21 23 27 31 37 39 39 38 36 35 35 34 34 34 35 36 37 37 38 38 40 39 39 36 38 36
11 13 12 13 14 15 17 7 13 21 22 19 16 16 18 19 18 17 15 16 17 20 22 25 29 33 37 38 41 40 39 38 38 38 38 37 34 38 39 40 40 40 40 39 40 37 35 36 36
14 12 12 10 10 4 19 16 12 21 23 20 19 19 20 21 20 16 16 18 21 23 26 30 34 36 39 42 40 38 38 39 39 39 40 40 40 38 40 40 42 42 41 40 39 36 34 35 36
10 8 3 2 1 6 6 14 22 11 20 21 21 20 22 22 20 18 20 21 22 26 30 33 36 41 42 38 37 36 38 39 40 40 41 41 39 37 35 38 38 38 38 37 36 36 36 37 38
12 14 4 6 3 4 6 11 12 17 24 18 20 22 22 22 21 20 21 21 25 30 32 35 41 40 35 35 35 35 36 37 37 37 38 36 34 31 30 33 35 34 34 36 35 35 37 40 37
7 14 16 6 7 3 6 11 15 15 20 22 24 25 24 22 21 21 22 24 26 29 35 40 41 35 35 34 36 35 35 35 36 35 35 35 32 31 29 30 31 32 31 32 33 34 35 38 38
14 4 4 7 1 4 5 8 14 12 21 26 27 27 25 22 21 20 23 23 27 33 38 42 36 35 35 35 36 36 35 34 35 35 35 36 34 32 32 31 30 31 32 33 35 35 34 34 36
9 17 11 7 7 4 1 4 7 17 18 24 25 24 22 21 20 21 22 26 32 36 42 36 34 35 36 36 35 35 33 33 33 33 33 32 32 32 32 33 34 35 36 36 38 40 37 35 34
11 13 16 14 7 8 5 15 10 6 16 22 22 22 21 21 21 22 25 31 36 40 37 33 34 34 36 35 33 31 30 29 28 26 23 21 21 24 27 29 31 32 33 33 33 36 38 36 35